OK4PZ-5 Weather Reports


time (UTC)temp
C
wind
direction
speed
KPH
gust
KPH
rain 1hr
cm
rain 24hr
cm
rain mn
cm
humidity
%
barometer
mb
20260502214502 8 304 0.0 0.0 0.00 0.00 0.00 80 1021.0
20260502213002 8 304 0.0 0.0 0.00 0.00 0.00 78 1021.0
20260502211502 8 289 0.0 0.0 0.00 0.00 0.00 79 1021.0
20260502210003 9 288 0.0 0.0 0.00 0.00 0.00 75 1021.0
20260502204502 10 287 0.0 0.0 0.00 0.00 0.00 73 1022.0
20260502203002 10 287 0.0 0.0 0.00 0.00 0.00 66 1021.0
20260502201502 11 287 0.0 0.0 0.00 0.00 0.00 61 1021.0
20260502200001 12 285 0.0 0.0 0.00 0.00 0.00 57 1021.0
20260502194502 12 119 0.0 0.0 0.00 0.00 0.00 59 1021.0
20260502193002 13 119 0.0 0.0 0.00 0.00 0.00 59 1021.0
20260502191502 13 119 0.0 0.0 0.00 0.00 0.00 55 1021.0
20260502190002 15 119 0.0 0.0 0.00 0.00 0.00 45 1021.0
20260502184502 16 119 0.0 0.0 0.00 0.00 0.00 42 1021.0
20260502183002 16 119 0.0 0.0 0.00 0.00 0.00 40 1021.0
20260502181502 17 119 0.0 0.0 0.00 0.00 0.00 36 1021.0
20260502163001 22 35 3.2 3.2 0.00 0.00 0.00 26 1021.0
20260502161502 23 125 8.0 12.9 0.00 0.00 0.00 25 1021.0
20260502151502 25 13 3.2 3.2 0.00 0.00 0.00 24 1022.0
20260502123003 23 242 4.8 4.8 0.00 0.00 0.00 30 1024.0
20260502121502 22 120 3.2 11.3 0.00 0.00 0.00 32 1024.0
20260502114502 23 263 0.0 4.8 0.00 0.00 0.00 32 1024.0
20260502113002 22 243 3.2 6.4 0.00 0.00 0.00 33 1025.0
20260502110002 22 232 1.6 4.8 0.00 0.00 0.00 32 1025.0
20260502104502 22 118 11.3 12.9 0.00 0.00 0.00 33 1025.0
20260502103002 21 174 4.8 6.4 0.00 0.00 0.00 35 1025.0
20260502101502 20 258 1.6 3.2 0.00 0.00 0.00 36 1026.0
20260502091502 20 26 0.0 4.8 0.00 0.00 0.00 37 1026.0
20260502071502 15 17 0.0 0.0 0.00 0.00 0.00 53 1027.0
20260502070003 13 62 0.0 0.0 0.00 0.00 0.00 60 1027.0
20260502064502 12 118 1.6 1.6 0.00 0.00 0.00 60 1027.0
20260502063002 11 47 0.0 1.6 0.00 0.00 0.00 68 1027.0
20260502061502 10 43 0.0 0.0 0.00 0.00 0.00 69 1027.0
20260502060002 8 43 0.0 1.6 0.00 0.00 0.00 77 1027.0
20260502054502 7 43 0.0 1.6 0.00 0.00 0.00 81 1027.0
20260502053003 6 40 0.0 0.0 0.00 0.00 0.00 86 1027.0
20260502051502 4 40 0.0 0.0 0.00 0.00 0.00 92 1027.0
20260502050002 3 40 0.0 1.6 0.00 0.00 0.00 95 1027.0
20260502044502 2 40 0.0 0.0 0.00 0.00 0.00 95 1027.0
20260502043002 1 40 0.0 0.0 0.00 0.00 0.00 96 1027.0
20260502040002 1 40 0.0 0.0 0.00 0.00 0.00 96 1026.0
20260502034502 1 40 0.0 0.0 0.00 0.00 0.00 96 1027.0
20260502033003 1 40 0.0 0.0 0.00 0.00 0.00 96 1027.0
20260502031502 1 40 0.0 0.0 0.00 0.00 0.00 95 1027.0
20260502030002 1 40 0.0 0.0 0.00 0.00 0.00 95 1027.0
20260502024501 1 40 0.0 0.0 0.00 0.00 0.00 95 1027.0
20260502023002 2 40 0.0 0.0 0.00 0.00 0.00 94 1027.0
20260502021502 2 40 0.0 0.0 0.00 0.00 0.00 94 1027.0
20260502020002 2 40 0.0 0.0 0.00 0.00 0.00 94 1027.0
20260502014502 2 40 0.0 0.0 0.00 0.00 0.00 94 1027.0
20260502013002 2 41 0.0 0.0 0.00 0.00 0.00 93 1027.0
20260502011502 3 40 0.0 0.0 0.00 0.00 0.00 92 1027.0
20260502010002 3 40 0.0 0.0 0.00 0.00 0.00 91 1027.0
20260502004502 3 40 0.0 0.0 0.00 0.00 0.00 92 1027.0
20260502003003 3 40 0.0 0.0 0.00 0.00 0.00 91 1028.0
20260502001502 3 40 0.0 0.0 0.00 0.00 0.00 91 1028.0
20260502000002 4 40 0.0 0.0 0.00 0.00 0.00 90 1028.0
20260501234502 4 40 0.0 0.0 0.00 0.00 0.00 90 1028.0
20260501233002 5 40 0.0 0.0 0.00 0.00 0.00 88 1028.0
20260501231501 5 40 0.0 0.0 0.00 0.00 0.00 87 1028.0
20260501230002 5 40 0.0 0.0 0.00 0.00 0.00 87 1028.0
20260501224502 5 40 0.0 0.0 0.00 0.00 0.00 86 1028.0
20260501223003 5 40 0.0 0.0 0.00 0.00 0.00 84 1028.0
20260501221502 6 40 0.0 0.0 0.00 0.00 0.00 85 1028.0
20260501220002 6 40 0.0 0.0 0.00 0.00 0.00 84 1028.0